Total_Precipitation_Accumulation
0.71 0.77 0.89 1.08 1.29 1.34 1.38 1.53 1.60 1.76 1.97 2.20 2.39 2.43 2.49 2.45 2.44 2.39 2.39 2.39 2.41 2.40 2.39 2.33 2.41 2.43 2.36 2.25 2.14 2.05 1.99 1.84 1.68 1.76 1.82 1.68 1.39 1.20 1.08 1.04 1.02 0.92 0.82
0.74 0.84 0.94 1.08 1.33 1.40 1.40 1.53 1.66 1.76 1.80 1.92 2.11 2.22 2.38 2.46 2.44 2.35 2.38 2.34 2.31 2.29 2.38 2.38 2.27 2.24 2.23 2.21 2.13 2.05 1.99 1.95 1.81 1.80 1.91 1.91 1.79 1.43 1.09 0.99 0.97 0.96 0.94
0.75 0.83 0.93 1.05 1.32 1.49 1.50 1.53 1.62 1.78 1.85 1.97 2.20 2.34 2.58 2.68 2.72 2.52 2.37 2.32 2.32 2.22 2.18 2.32 2.33 2.22 2.17 2.13 2.08 1.99 1.90 1.88 1.75 1.59 1.80 1.89 1.64 1.32 1.11 0.98 0.89 0.87 0.95
0.77 0.84 0.87 0.99 1.17 1.36 1.50 1.57 1.69 1.81 1.84 2.03 2.23 2.26 2.42 2.48 2.42 2.31 2.25 2.20 2.26 2.27 2.18 2.17 2.25 2.27 2.15 2.02 2.00 2.02 1.95 1.96 1.95 1.74 1.52 1.49 1.39 1.38 1.21 1.04 0.98 0.92 0.90
0.73 0.81 0.85 0.86 1.00 1.16 1.37 1.53 1.72 1.88 1.90 1.95 2.14 2.21 2.18 2.26 2.37 2.42 2.38 2.31 2.28 2.26 2.21 2.20 2.21 2.20 2.15 2.01 1.93 1.96 2.02 2.04 2.02 1.93 1.69 1.50 1.28 1.20 1.29 1.10 0.99 1.07 1.02
0.78 0.81 0.81 0.82 0.94 1.10 1.27 1.44 1.64 1.79 1.89 1.89 2.00 2.18 2.16 2.15 2.28 2.46 2.51 2.44 2.36 2.30 2.20 2.12 2.16 2.12 2.01 1.95 1.89 1.88 1.87 1.90 1.92 1.87 1.77 1.68 1.57 1.34 1.30 1.22 1.00 0.99 1.01
0.81 0.87 0.77 0.81 0.87 0.98 1.16 1.33 1.54 1.64 1.75 1.81 1.87 1.94 2.09 2.09 2.09 2.15 2.27 2.41 2.36 2.26 2.19 2.12 2.07 2.05 1.95 1.85 1.83 1.85 1.83 1.76 1.77 1.79 1.70 1.59 1.47 1.37 1.41 1.51 1.37 1.19 1.04
0.75 0.82 0.80 0.82 0.85 0.88 1.02 1.18 1.31 1.51 1.68 1.78 1.80 1.83 1.91 2.05 2.00 2.01 1.97 2.10 2.17 2.04 1.98 2.07 2.03 1.99 1.98 1.96 1.93 1.87 1.85 1.82 1.73 1.64 1.60 1.60 1.48 1.44 1.55 1.68 1.79 1.72 1.31
0.82 0.81 0.83 0.87 0.83 0.89 0.96 1.11 1.20 1.34 1.57 1.75 1.82 1.81 1.85 1.92 1.93 1.90 1.91 1.93 1.95 1.97 1.96 1.98 1.99 1.95 2.03 2.11 2.15 2.08 1.91 1.85 1.80 1.72 1.61 1.60 1.55 1.49 1.49 1.57 1.76 2.10 1.93
0.92 0.90 0.87 0.94 0.90 0.91 0.96 1.02 1.16 1.26 1.41 1.64 1.86 1.87 1.82 1.79 1.86 1.92 1.96 1.92 1.88 1.92 1.96 1.98 2.01 1.97 1.93 2.01 2.12 2.10 2.01 2.00 1.90 1.84 1.79 1.64 1.56 1.56 1.59 1.66 1.68 1.80 1.99
0.92 0.88 0.81 0.84 0.90 0.90 0.99 1.04 1.12 1.22 1.34 1.46 1.66 1.80 1.82 1.83 1.87 1.90 1.86 1.89 1.88 1.88 1.88 1.87 1.89 1.95 1.93 1.90 1.99 1.97 1.94 1.97 1.90 1.85 1.86 1.71 1.60 1.71 1.75 1.80 1.83 1.76 1.81
0.81 0.81 0.76 0.77 0.85 0.94 1.01 1.09 1.13 1.13 1.24 1.36 1.49 1.65 1.77 1.83 1.87 1.83 1.83 1.87 1.89 1.87 1.79 1.75 1.76 1.82 1.86 1.85 1.90 1.92 1.87 1.87 1.83 1.78 1.80 1.78 1.68 1.68 1.72 1.83 1.85 1.76 1.68
0.78 0.82 0.82 0.79 0.83 0.92 1.00 1.07 1.13 1.09 1.14 1.34 1.47 1.59 1.70 1.72 1.76 1.71 1.75 1.90 1.97 1.93 1.77 1.72 1.74 1.77 1.85 1.84 1.80 1.91 1.91 1.82 1.74 1.69 1.73 1.74 1.74 1.67 1.62 1.71 1.78 1.71 1.67
0.71 0.80 0.91 0.87 0.81 0.86 0.92 0.97 1.08 1.12 1.14 1.23 1.40 1.53 1.63 1.60 1.59 1.61 1.62 1.73 1.85 1.93 1.83 1.70 1.67 1.74 1.88 1.91 1.89 1.97 1.96 1.84 1.71 1.60 1.59 1.66 1.78 1.80 1.77 1.78 1.75 1.80 1.91
0.64 0.79 0.90 0.89 0.90 0.92 0.95 0.93 0.97 1.09 1.19 1.17 1.28 1.37 1.50 1.59 1.55 1.54 1.59 1.67 1.75 1.74 1.76 1.77 1.70 1.73 1.97 2.20 2.34 2.22 1.97 1.80 1.70 1.52 1.43 1.51 1.80 2.03 2.19 2.23 2.05 2.07 2.28
0.59 0.66 0.75 0.83 0.93 1.01 1.03 1.02 0.99 1.06 1.18 1.17 1.23 1.29 1.44 1.58 1.55 1.48 1.56 1.70 1.80 1.77 1.73 1.75 1.73 1.69 1.88 2.36 2.60 2.21 1.82 1.67 1.64 1.58 1.43 1.45 1.75 1.95 2.14 2.31 2.25 2.24 2.44
0.55 0.56 0.67 0.81 0.91 1.01 1.03 1.05 1.03 1.06 1.16 1.20 1.23 1.30 1.43 1.51 1.55 1.52 1.56 1.68 1.79 1.79 1.75 1.72 1.71 1.68 1.76 2.18 2.40 2.17 1.81 1.64 1.55 1.49 1.46 1.50 1.61 1.78 1.78 1.97 2.04 2.00 2.16
0.58 0.58 0.67 0.79 0.83 0.91 0.96 1.00 0.97 1.10 1.19 1.21 1.22 1.29 1.39 1.44 1.55 1.58 1.58 1.71 1.77 1.71 1.70 1.70 1.67 1.64 1.72 2.08 2.31 2.17 1.84 1.73 1.62 1.57 1.48 1.42 1.46 1.62 1.82 1.92 1.90 1.76 1.78
0.62 0.64 0.68 0.77 0.77 0.83 0.90 0.96 0.93 1.03 1.14 1.19 1.16 1.22 1.34 1.40 1.49 1.55 1.61 1.70 1.79 1.73 1.65 1.63 1.67 1.63 1.67 2.02 2.35 2.23 1.87 1.81 1.70 1.63 1.54 1.41 1.35 1.63 1.88 1.83 1.77 1.66 1.65
0.55 0.63 0.66 0.70 0.73 0.77 0.82 0.88 0.94 0.98 1.10 1.16 1.07 1.14 1.24 1.33 1.44 1.50 1.57 1.64 1.66 1.66 1.66 1.62 1.63 1.61 1.59 1.89 2.30 2.39 1.91 1.79 1.69 1.67 1.59 1.66 1.61 1.77 1.83 1.69 1.76 1.87 1.69
0.56 0.60 0.62 0.67 0.74 0.77 0.78 0.83 0.92 0.99 1.06 1.13 1.06 1.11 1.17 1.26 1.38 1.49 1.50 1.58 1.63 1.63 1.67 1.67 1.64 1.59 1.61 1.73 2.04 2.40 2.08 1.87 1.71 1.68 1.66 1.59 1.80 1.84 1.83 1.80 1.74 1.93 1.81
0.59 0.61 0.64 0.68 0.71 0.73 0.77 0.81 0.85 0.93 1.02 1.08 1.07 1.14 1.19 1.23 1.30 1.42 1.43 1.47 1.61 1.67 1.68 1.69 1.73 1.69 1.65 1.70 1.92 2.20 2.17 2.04 1.81 1.70 1.58 1.56 1.79 1.83 1.87 1.81 1.86 1.94 1.90
0.68 0.68 0.70 0.69 0.71 0.74 0.78 0.86 0.88 0.90 1.02 1.07 1.06 1.12 1.22 1.26 1.30 1.35 1.38 1.44 1.53 1.63 1.66 1.62 1.62 1.65 1.59 1.68 1.98 1.97 2.00 2.02 1.90 1.85 1.89 1.84 1.92 1.92 1.80 1.76 1.82 1.75 1.65
0.74 0.76 0.76 0.75 0.76 0.77 0.82 0.90 0.93 0.92 1.02 1.05 1.05 1.11 1.17 1.24 1.29 1.27 1.24 1.28 1.40 1.55 1.57 1.56 1.50 1.45 1.48 1.67 1.88 1.81 1.77 1.86 1.94 2.00 1.99 1.98 2.01 1.94 1.85 1.77 1.62 1.49 1.52
0.76 0.78 0.79 0.82 0.84 0.81 0.86 0.91 0.94 0.94 1.02 1.00 0.98 1.06 1.08 1.17 1.29 1.28 1.24 1.25 1.26 1.46 1.66 1.61 1.55 1.58 1.67 1.81 2.00 1.95 1.88 1.91 1.97 2.06 2.10 2.04 2.00 1.99 1.84 1.62 1.44 1.39 1.49
0.75 0.76 0.78 0.83 0.91 0.89 0.90 0.93 0.97 0.96 0.99 1.00 0.96 1.00 1.05 1.10 1.19 1.23 1.29 1.43 1.41 1.44 1.47 1.50 1.60 1.57 1.71 1.82 1.84 1.89 1.96 2.06 2.13 2.19 2.14 1.92 1.71 1.65 1.58 1.49 1.41 1.35 1.36